Time,TemperatureF,DewpointF,PressureIn,WindDirection,WindDirectionDegrees,WindSpeedMPH,WindSpeedGustMPH,Humidity,HourlyPrecipIn,Conditions,Clouds,dailyrainin,SolarRadiationWatts/m^2,SoftwareType,DateUTC
2013-09-26 00:00:00,45.0,44.0,-100.00,East,87,0.0,0.0,95,0.00,,,0.00,0.000000,,2013-09-26 05:00:00,
2013-09-26 00:23:00,45.0,44.0,-100.00,East,87,0.0,0.0,95,0.00,,,0.00,0.000000,,2013-09-26 05:23:00,
2013-09-26 00:34:00,45.0,44.0,-100.00,East,87,0.0,0.0,95,0.00,,,0.00,0.000000,,2013-09-26 05:34:00,
2013-09-26 00:43:00,45.0,44.0,-100.00,East,87,0.0,0.0,95,0.00,,,0.00,0.000000,,2013-09-26 05:43:00,
2013-09-26 00:52:00,45.0,44.0,-100.00,East,87,0.0,0.0,95,0.00,,,0.00,0.000000,,2013-09-26 05:52:00,
2013-09-26 01:00:00,44.0,43.0,-100.00,ESE,106,0.0,3.0,96,0.00,,,0.00,0.000000,,2013-09-26 06:00:00,
2013-09-26 01:22:00,44.0,43.0,-100.00,ESE,106,0.0,3.0,96,0.00,,,0.00,0.000000,,2013-09-26 06:22:00,
2013-09-26 01:33:00,44.0,43.0,-100.00,ESE,106,0.0,3.0,96,0.00,,,0.00,0.000000,,2013-09-26 06:33:00,
2013-09-26 01:42:00,44.0,43.0,-100.00,ESE,106,0.0,3.0,96,0.00,,,0.00,0.000000,,2013-09-26 06:42:00,
2013-09-26 01:53:00,44.0,43.0,-100.00,ESE,106,0.0,3.0,96,0.00,,,0.00,0.000000,,2013-09-26 06:53:00,
2013-09-26 02:00:00,42.0,41.0,-100.00,East,86,0.0,2.0,96,0.00,,,0.00,0.000000,,2013-09-26 07:00:00,
2013-09-26 02:22:00,42.0,41.0,-100.00,East,86,0.0,2.0,96,0.00,,,0.00,0.000000,,2013-09-26 07:22:00,
2013-09-26 02:32:00,42.0,41.0,-100.00,East,86,0.0,2.0,96,0.00,,,0.00,0.000000,,2013-09-26 07:32:00,
2013-09-26 02:42:00,42.0,41.0,-100.00,East,86,0.0,2.0,96,0.00,,,0.00,0.000000,,2013-09-26 07:42:00,
2013-09-26 02:53:00,42.0,41.0,-100.00,East,86,0.0,2.0,96,0.00,,,0.00,0.000000,,2013-09-26 07:53:00,
2013-09-26 03:00:00,42.0,41.0,-100.00,East,87,0.0,3.0,96,0.00,,,0.00,0.000000,,2013-09-26 08:00:00,
2013-09-26 03:22:00,42.0,41.0,-100.00,East,87,0.0,3.0,96,0.00,,,0.00,0.000000,,2013-09-26 08:22:00,
2013-09-26 03:32:00,42.0,41.0,-100.00,East,87,0.0,3.0,96,0.00,,,0.00,0.000000,,2013-09-26 08:32:00,
2013-09-26 03:42:00,42.0,41.0,-100.00,East,87,0.0,3.0,96,0.00,,,0.00,0.000000,,2013-09-26 08:42:00,
2013-09-26 03:52:00,42.0,41.0,-100.00,East,87,0.0,3.0,96,0.00,,,0.00,0.000000,,2013-09-26 08:52:00,
2013-09-26 04:00:00,42.0,41.0,-100.00,East,98,0.0,2.0,96,0.00,,,0.00,0.000000,,2013-09-26 09:00:00,
2013-09-26 04:43:00,42.0,41.0,-100.00,East,98,0.0,2.0,96,0.00,,,0.00,0.000000,,2013-09-26 09:43:00,
2013-09-26 04:54:00,42.0,41.0,-100.00,East,98,0.0,2.0,96,0.00,,,0.00,0.000000,,2013-09-26 09:54:00,
2013-09-26 05:00:00,42.0,41.0,-100.00,East,96,0.0,2.0,97,0.00,,,0.00,0.000000,,2013-09-26 10:00:00,
2013-09-26 05:42:00,42.0,41.0,-100.00,East,96,0.0,2.0,97,0.00,,,0.00,0.000000,,2013-09-26 10:42:00,
2013-09-26 05:53:00,42.0,41.0,-100.00,East,96,0.0,2.0,97,0.00,,,0.00,0.000000,,2013-09-26 10:53:00,
2013-09-26 06:00:00,44.0,43.0,-100.00,ESE,102,1.0,3.0,97,0.00,,,0.00,0.000000,,2013-09-26 11:00:00,
2013-09-26 06:42:00,44.0,43.0,-100.00,ESE,102,1.0,3.0,97,0.00,,,0.00,0.000000,,2013-09-26 11:42:00,
2013-09-26 06:52:00,44.0,43.0,-100.00,ESE,102,1.0,3.0,97,0.00,,,0.00,0.000000,,2013-09-26 11:52:00,
2013-09-26 07:00:00,45.0,44.0,-100.00,SE,128,2.0,5.0,97,0.00,,,0.00,2.000000,,2013-09-26 12:00:00,
2013-09-26 07:42:00,45.0,44.0,-100.00,SE,128,2.0,5.0,97,0.00,,,0.00,2.000000,,2013-09-26 12:42:00,
2013-09-26 07:52:00,45.0,44.0,-100.00,SE,128,2.0,5.0,97,0.00,,,0.00,2.000000,,2013-09-26 12:52:00,
2013-09-26 08:00:00,46.0,45.0,-100.00,SE,127,3.0,6.0,97,0.00,,,0.00,51.000000,,2013-09-26 13:00:00,
2013-09-26 08:22:00,46.0,45.0,-100.00,SE,127,3.0,6.0,97,0.00,,,0.00,51.000000,,2013-09-26 13:22:00,
2013-09-26 08:32:00,46.0,45.0,-100.00,SE,127,3.0,6.0,97,0.00,,,0.00,51.000000,,2013-09-26 13:32:00,
2013-09-26 08:42:00,46.0,45.0,-100.00,SE,127,3.0,6.0,97,0.00,,,0.00,51.000000,,2013-09-26 13:42:00,
2013-09-26 08:52:00,46.0,45.0,-100.00,SE,127,3.0,6.0,97,0.00,,,0.00,51.000000,,2013-09-26 13:52:00,
2013-09-26 09:00:00,53.0,49.0,-100.00,SE,136,4.0,9.0,85,0.00,,,-99.99,299.000000,,2013-09-26 14:00:00,
2013-09-26 09:22:00,53.0,49.0,-100.00,SE,136,4.0,9.0,85,0.00,,,-99.99,299.000000,,2013-09-26 14:22:00,
2013-09-26 09:32:00,53.0,49.0,-100.00,SE,136,4.0,9.0,85,0.00,,,-99.99,299.000000,,2013-09-26 14:32:00,
2013-09-26 09:42:00,53.0,49.0,-100.00,SE,136,4.0,9.0,85,0.00,,,-99.99,299.000000,,2013-09-26 14:42:00,
2013-09-26 09:52:00,53.0,49.0,-100.00,SE,136,4.0,9.0,85,0.00,,,-99.99,299.000000,,2013-09-26 14:52:00,
2013-09-26 10:00:00,58.0,49.0,-100.00,SSE,157,4.0,9.0,73,0.00,,,0.00,487.000000,,2013-09-26 15:00:00,
2013-09-26 10:22:00,58.0,49.0,-100.00,SSE,157,4.0,9.0,73,0.00,,,0.00,487.000000,,2013-09-26 15:22:00,
2013-09-26 10:33:00,58.0,49.0,-100.00,SSE,157,4.0,9.0,73,0.00,,,0.00,487.000000,,2013-09-26 15:33:00,
2013-09-26 10:44:00,58.0,49.0,-100.00,SSE,157,4.0,9.0,73,0.00,,,0.00,487.000000,,2013-09-26 15:44:00,
2013-09-26 10:54:00,58.0,49.0,-100.00,SSE,157,4.0,9.0,73,0.00,,,0.00,487.000000,,2013-09-26 15:54:00,
2013-09-26 11:00:00,63.0,51.0,-100.00,SSE,156,3.0,10.0,65,0.00,,,0.00,641.000000,,2013-09-26 16:00:00,
2013-09-26 11:43:00,63.0,51.0,-100.00,SSE,156,3.0,10.0,65,0.00,,,0.00,641.000000,,2013-09-26 16:43:00,
2013-09-26 11:53:00,63.0,51.0,-100.00,SSE,156,3.0,10.0,65,0.00,,,0.00,641.000000,,2013-09-26 16:53:00,
2013-09-26 12:00:00,65.0,50.0,-100.00,SSE,167,5.0,11.0,58,0.00,,,0.00,754.000000,,2013-09-26 17:00:00,
2013-09-26 12:23:00,65.0,50.0,-100.00,SSE,167,5.0,11.0,58,0.00,,,0.00,754.000000,,2013-09-26 17:23:00,
2013-09-26 12:34:00,65.0,50.0,-100.00,SSE,167,5.0,11.0,58,0.00,,,0.00,754.000000,,2013-09-26 17:34:00,
2013-09-26 12:43:00,65.0,50.0,-100.00,SSE,167,5.0,11.0,58,0.00,,,0.00,754.000000,,2013-09-26 17:43:00,
2013-09-26 12:52:00,65.0,50.0,-100.00,SSE,167,5.0,11.0,58,0.00,,,0.00,754.000000,,2013-09-26 17:52:00,
2013-09-26 13:00:00,69.0,50.0,-100.00,SSE,156,5.0,12.0,50,0.00,,,0.00,801.000000,,2013-09-26 18:00:00,
2013-09-26 13:42:00,69.0,50.0,-100.00,SSE,156,5.0,12.0,50,0.00,,,0.00,801.000000,,2013-09-26 18:42:00,
2013-09-26 13:52:00,69.0,50.0,-100.00,SSE,156,5.0,12.0,50,0.00,,,0.00,801.000000,,2013-09-26 18:52:00,
2013-09-26 14:00:00,71.0,50.0,-100.00,SE,145,4.0,12.0,47,0.00,,,0.00,786.000000,,2013-09-26 19:00:00,
2013-09-26 14:44:00,71.0,50.0,-100.00,SE,145,4.0,12.0,47,0.00,,,0.00,786.000000,,2013-09-26 19:44:00,
2013-09-26 14:52:00,71.0,50.0,-100.00,SE,145,4.0,12.0,47,0.00,,,0.00,786.000000,,2013-09-26 19:52:00,
2013-09-26 15:00:00,72.0,48.0,-100.00,SSE,153,5.0,11.0,43,0.00,,,0.00,704.000000,,2013-09-26 20:00:00,
2013-09-26 15:43:00,72.0,48.0,-100.00,SSE,153,5.0,11.0,43,0.00,,,0.00,704.000000,,2013-09-26 20:43:00,
2013-09-26 15:52:00,72.0,48.0,-100.00,SSE,153,5.0,11.0,43,0.00,,,0.00,704.000000,,2013-09-26 20:52:00,
2013-09-26 16:00:00,73.0,47.0,-100.00,SSE,161,5.0,12.0,39,0.00,,,0.00,562.000000,,2013-09-26 21:00:00,
2013-09-26 16:23:00,73.0,47.0,-100.00,SSE,161,5.0,12.0,39,0.00,,,0.00,562.000000,,2013-09-26 21:23:00,
2013-09-26 16:34:00,73.0,47.0,-100.00,SSE,161,5.0,12.0,39,0.00,,,0.00,562.000000,,2013-09-26 21:34:00,
2013-09-26 16:44:00,73.0,47.0,-100.00,SSE,161,5.0,12.0,39,0.00,,,0.00,562.000000,,2013-09-26 21:44:00,
2013-09-26 16:54:00,73.0,47.0,-100.00,SSE,161,5.0,12.0,39,0.00,,,0.00,562.000000,,2013-09-26 21:54:00,
2013-09-26 17:00:00,73.0,46.0,-100.00,SSE,165,4.0,11.0,38,0.00,,,0.00,384.000000,,2013-09-26 22:00:00,
2013-09-26 17:43:00,73.0,46.0,-100.00,SSE,165,4.0,11.0,38,0.00,,,0.00,384.000000,,2013-09-26 22:43:00,
2013-09-26 17:54:00,73.0,46.0,-100.00,SSE,165,4.0,11.0,38,0.00,,,0.00,384.000000,,2013-09-26 22:54:00,
2013-09-26 18:00:00,70.0,46.0,-100.00,SE,146,3.0,12.0,42,0.00,,,0.00,191.000000,,2013-09-26 23:00:00,
2013-09-26 18:42:00,70.0,46.0,-100.00,SE,146,3.0,12.0,42,0.00,,,0.00,191.000000,,2013-09-26 23:42:00,
2013-09-26 18:53:00,70.0,46.0,-100.00,SE,146,3.0,12.0,42,0.00,,,0.00,191.000000,,2013-09-26 23:53:00,
2013-09-26 19:00:00,62.0,47.0,-100.00,SE,131,2.0,9.0,58,0.00,,,0.00,29.000000,,2013-09-27 00:00:00,
2013-09-26 19:22:00,62.0,47.0,-100.00,SE,131,2.0,9.0,58,0.00,,,0.00,29.000000,,2013-09-27 00:22:00,
2013-09-26 19:32:00,62.0,47.0,-100.00,SE,131,2.0,9.0,58,0.00,,,0.00,29.000000,,2013-09-27 00:32:00,
2013-09-26 19:43:00,62.0,47.0,-100.00,SE,131,2.0,9.0,58,0.00,,,0.00,29.000000,,2013-09-27 00:43:00,
2013-09-26 19:52:00,62.0,47.0,-100.00,SE,131,2.0,9.0,58,0.00,,,0.00,29.000000,,2013-09-27 00:52:00,
2013-09-26 20:00:00,61.0,50.0,-100.00,SE,136,3.0,8.0,68,0.00,,,0.00,0.000000,,2013-09-27 01:00:00,
2013-09-26 20:42:00,61.0,50.0,-100.00,SE,136,3.0,8.0,68,0.00,,,0.00,0.000000,,2013-09-27 01:42:00,
2013-09-26 20:52:00,61.0,50.0,-100.00,SE,136,3.0,8.0,68,0.00,,,0.00,0.000000,,2013-09-27 01:52:00,
2013-09-26 21:00:00,60.0,52.0,-100.00,SSE,155,3.0,8.0,74,0.00,,,0.00,0.000000,,2013-09-27 02:00:00,
2013-09-26 21:22:00,60.0,52.0,-100.00,SSE,155,3.0,8.0,74,0.00,,,0.00,0.000000,,2013-09-27 02:22:00,
2013-09-26 21:32:00,60.0,52.0,-100.00,SSE,155,3.0,8.0,74,0.00,,,0.00,0.000000,,2013-09-27 02:32:00,
2013-09-26 21:43:00,60.0,52.0,-100.00,SSE,155,3.0,8.0,74,0.00,,,0.00,0.000000,,2013-09-27 02:43:00,
2013-09-26 21:53:00,60.0,52.0,-100.00,SSE,155,3.0,8.0,74,0.00,,,0.00,0.000000,,2013-09-27 02:53:00,
2013-09-26 22:00:00,58.0,52.0,-100.00,SE,146,3.0,10.0,79,0.00,,,0.00,0.000000,,2013-09-27 03:00:00,
2013-09-26 22:45:00,58.0,52.0,-100.00,SE,146,3.0,10.0,79,0.00,,,0.00,0.000000,,2013-09-27 03:45:00,
2013-09-26 22:55:00,58.0,52.0,-100.00,SE,146,3.0,10.0,79,0.00,,,0.00,0.000000,,2013-09-27 03:55:00,
2013-09-26 23:00:00,58.0,52.0,-100.00,SE,144,3.0,8.0,81,0.00,,,0.00,0.000000,,2013-09-27 04:00:00,
2013-09-26 23:44:00,58.0,52.0,-100.00,SE,144,3.0,8.0,81,0.00,,,0.00,0.000000,,2013-09-27 04:44:00,
2013-09-26 23:54:00,58.0,52.0,-100.00,SE,144,3.0,8.0,81,0.00,,,0.00,0.000000,,2013-09-27 04:54:00,